Regional Weather Roundup
Issued by NWS

Home | Current Version | Previous Version | Graphics & Text | Print | Product List | Glossary On
Versions: 1 2 3 4 5 6 7 8 9 10 11 12 13 14 15 16 17 18 19 20 21 22 23 24 25 26 27 28 29 30 31 32 33 34 35 36 37 38 39 40 41 42 43 44 45 46 47 48 49 50
000
ASUS43 KDMX 241406
RWRIA

WEATHER ROUNDUP FOR IOWA
NATIONAL WEATHER SERVICE DES MOINES IA
800 AM CST TUE JAN 24 2017

NOTE: "FAIR" INDICATES FEW OR NO CLOUDS BELOW 12,000 FEET WITH NO
SIGNIFICANT WEATHER AND/OR OBSTRUCTIONS TO VISIBILITY.

* - THESE STATIONS ARE NOT NWS STATIONS...THUS NOT UNDER NWS
QUALITY CONTROL.  THEY ALSO DO NOT REPORT WEATHER SUCH
AS PRECIPITATION OR FOG.

IAZ001>003-012>014-020>022-031>034-043>046-241500-
   NORTHWEST IOWA

CITY           SKY/WX    TMP DP  RH WIND       PRES   REMARKS
CARROLL *      CLOUDY    32  32 100 E15       29.80S WCI  22
CHEROKEE *     CLOUDY    31  30  97 E12       29.81F WCI  22
DENISON *      CLOUDY    30  30 100 E10G20    29.75F FOG     WCI  21
LE MARS *      CLOUDY    32  28  86 E9G17     29.79F WCI  24
ORANGE CITY *  CLOUDY    30  30 100 E10       29.79F WCI  21
SHELDON *      CLOUDY    30  30 100 E15       29.79F WCI  19
SIOUX CITY     CLOUDY    32  29  88 E13G20    29.76F WCI  22
SPENCER        CLOUDY    31  28  89 E13       29.82F WCI  21
STORM LAKE *   CLOUDY    30  28  93 E15       29.80S FOG     WCI  19
$$

IAZ055>058-069>071-079>083-090>094-241500-
   SOUTHWEST IOWA

CITY           SKY/WX    TMP DP  RH WIND       PRES   REMARKS
ATLANTIC *     CLOUDY    30  30 100 E13       29.77S FOG     WCI  20
AUDUBON *      CLOUDY    30  27  86 E12       29.79F FOG     WCI  21
CLARINDA *     CLOUDY    32  32 100 E7G14     29.78F FOG     WCI  26
COUNCIL BLFS * CLOUDY    30  30 100 E13       29.75S FOG     WCI  20
CRESTON *      FOG       28  28 100 E17       29.79S VSB 1/4 WCI  16
HARLAN  *      CLOUDY    30  30 100 E12G18    29.80F WCI  21
LAMONI         CLOUDY    29  28  96 E8        29.78F FOG     WCI  21
RED OAK *      CLOUDY    30  30 100 E10       29.77S WCI  21
SHENANDOAH *   CLOUDY    32  30  93 E10G16    29.76S FOG     WCI  24
$$

IAZ047>049-059>061-072>074-084-241500-
   CENTRAL IOWA

CITY           SKY/WX    TMP DP  RH WIND       PRES   REMARKS
AMES           CLOUDY    32  30  92 E9        29.83F WCI  24
ANKENY *       CLOUDY    32  28  86 E8        29.84F WCI  25
BOONE *        CLOUDY    32  32 100 E10       29.81F FOG     WCI  24
CHARITON *     CLOUDY    30  28  93 E9        29.82F FOG     WCI  22
DES MOINES     CLOUDY    32  28  85 E8        29.84F WCI  25
GRINNELL*      CLOUDY    31  29  89 E5        29.86F WCI  27
KNOXVILLE *    CLOUDY    30  28  93 E7        29.83S FOG     WCI  23
MARSHALLTOWN   CLOUDY    32  28  85 E6        29.86R WCI  26
NEWTON *       CLOUDY    32  30  93 E8        29.83F WCI  25
PELLA *        CLOUDY    31  29  92 E7        29.85F FOG     WCI  24
PERRY *        CLOUDY    32  30  94 E8        29.82F WCI  25
$$

IAZ004>006-015-016-023>025-035-036-241500-
   NORTH CENTRAL IOWA

CITY           SKY/WX    TMP DP  RH WIND       PRES   REMARKS
ALGONA *       CLOUDY    32  30  93 E10       29.85F WCI  24
CLARION *      CLOUDY    32  32 100 NE7       29.86S WCI  26
ESTHERVILLE    CLOUDY    30  29  96 E9        29.84F WCI  22
FORT DODGE *   CLOUDY    30  27  86 E10       29.84F WCI  21
MASON CITY     CLOUDY    30  27  88 NE8       29.87S WCI  22
FOREST CITY *  CLOUDY    30  30 100 E5        29.86F WCI  25
WEBSTER CITY * CLOUDY    32 N/A N/A E12       29.82F WCI  23
IOWA FALLS *   CLOUDY    32  29  88 E7        29.87R WCI  26
$$

IAZ007>011-017>019-026>030-037>042-050>054-066-241500-
   NORTHEAST IOWA

CITY           SKY/WX    TMP DP  RH WIND       PRES   REMARKS
CEDAR RAPIDS   CLOUDY    31  28  89 S5        29.88R WCI  26
CHARLES CITY * CLOUDY    30  32 100 NE6       29.87S WCI  24
CLINTON *      CLOUDY    32  31  96 CALM      29.89F
DECORAH *      CLOUDY    32  28  86 CALM      29.86S
DUBUQUE        CLOUDY    32  28  85 CALM      29.87F
MONTICELLO *   CLOUDY    32  28  86 E6        29.87F WCI  26
OELWEIN *      CLOUDY    32  30  93 N6        29.86F WCI  26
WATERLOO       CLOUDY    32  26  78 NE3       29.87R
$$

IAZ064-065-067-068-078-241500-
   EAST CENTRAL IOWA

CITY           SKY/WX    TMP DP  RH WIND       PRES   REMARKS
DAVENPORT      CLOUDY    34  29  82 N3        29.89F
IOWA CITY      CLOUDY    33  28  81 SE3       29.91R
MUSCATINE *    CLOUDY    34  30  86 CALM      29.91R
QUAD CITIES    CLOUDY    34  30  85 CALM      29.88F
$$

IAZ062-063-075>077-085>089-095>099-241500-
   SOUTHEAST IOWA

CITY           SKY/WX    TMP DP  RH WIND       PRES   REMARKS
BURLINGTON     CLOUDY    33  30  88 SE3       29.89R
FAIRFIELD *    CLOUDY    30  28  93 E5        29.87F WCI  25
FORT MADISON * CLOUDY    32  30  93 E3        29.90R
KEOKUK *       CLOUDY    32 N/A N/A E5        29.88R WCI  27
OSKALOOSA *    CLOUDY    30  29  95 E8        29.86F FOG     WCI  23
CENTERVILLE *  CLOUDY    30  30 100 E7        29.84F WCI  23
OTTUMWA        CLOUDY    31  28  89 E7        29.85F WCI  24
WASHINGTON *   CLOUDY    32  30  93 CALM      29.89S
$$

ABBREVIATIONS USED IN REMARKS
   TC - TEMPERATURES IN CELSIUS
  WCI - WIND CHILL INDEX
   HX - HEAT INDEX
  VSB - VISIBILITY
$$




USA.gov is the U.S. government's official web portal to all federal, state and local government web resources and services.